TimeEST,TemperatureF,Dew PointF,Humidity,Sea Level PressureIn,VisibilityMPH,Wind Direction,Wind SpeedMPH,Gust SpeedMPH,PrecipitationIn,Events,Conditions,WindDirDegrees,DateUTC
12:53 AM,30.9,26.1,82,30.17,-9999.0,Calm,Calm,-,N/A,,Unknown,0,2013-03-04 05:53:00
1:53 AM,30.9,26.1,82,30.18,-9999.0,Calm,Calm,-,N/A,,Unknown,0,2013-03-04 06:53:00
2:53 AM,28.9,24.1,82,30.17,-9999.0,Calm,Calm,-,N/A,,Unknown,0,2013-03-04 07:53:00
3:53 AM,28.0,24.1,85,30.17,-9999.0,Calm,Calm,-,N/A,,Unknown,0,2013-03-04 08:53:00
4:53 AM,27.0,23.0,85,30.18,-9999.0,Calm,Calm,-,N/A,,Unknown,0,2013-03-04 09:53:00
5:53 AM,27.0,23.0,85,30.18,-9999.0,Calm,Calm,-,N/A,,Unknown,0,2013-03-04 10:53:00
6:53 AM,27.0,23.0,85,30.22,-9999.0,Calm,Calm,-,N/A,,Unknown,0,2013-03-04 11:53:00
7:53 AM,33.1,28.0,82,30.23,-9999.0,Calm,Calm,-,N/A,,Unknown,0,2013-03-04 12:53:00
8:53 AM,45.0,27.0,49,30.24,-9999.0,NNE,5.8,-,N/A,,Unknown,30,2013-03-04 13:53:00
9:53 AM,52.0,21.9,31,30.25,-9999.0,NNE,4.6,-,N/A,,Unknown,20,2013-03-04 14:53:00
10:53 AM,55.9,21.0,26,30.24,-9999.0,Variable,5.8,-,N/A,,Unknown,0,2013-03-04 15:53:00
11:53 AM,59.0,19.9,22,30.22,-9999.0,Variable,3.5,-,N/A,,Unknown,0,2013-03-04 16:53:00
12:53 PM,60.1,19.9,21,30.20,-9999.0,South,4.6,-,N/A,,Unknown,190,2013-03-04 17:53:00
1:53 PM,62.1,21.0,21,30.16,-9999.0,Calm,Calm,-,N/A,,Unknown,0,2013-03-04 18:53:00
2:53 PM,64.9,25.0,22,30.15,-9999.0,Variable,5.8,-,N/A,,Unknown,0,2013-03-04 19:53:00
3:53 PM,64.9,30.9,28,30.14,-9999.0,SW,6.9,-,N/A,,Unknown,220,2013-03-04 20:53:00
4:53 PM,63.0,30.9,30,30.14,-9999.0,West,8.1,-,N/A,,Unknown,270,2013-03-04 21:53:00
5:53 PM,57.9,30.9,36,30.15,-9999.0,WSW,9.2,-,N/A,,Unknown,250,2013-03-04 22:53:00
6:53 PM,53.1,32.0,45,30.17,-9999.0,WSW,4.6,-,N/A,,Unknown,240,2013-03-04 23:53:00
7:53 PM,46.9,33.1,59,30.17,-9999.0,Calm,Calm,-,N/A,,Unknown,0,2013-03-05 00:53:00
8:53 PM,43.0,33.1,68,30.16,-9999.0,Calm,Calm,-,N/A,,Unknown,0,2013-03-05 01:53:00
9:53 PM,39.9,32.0,73,30.17,-9999.0,Calm,Calm,-,N/A,,Unknown,0,2013-03-05 02:53:00
10:53 PM,37.9,32.0,79,30.16,-9999.0,Calm,Calm,-,N/A,,Unknown,0,2013-03-05 03:53:00
11:53 PM,36.0,30.9,82,30.14,-9999.0,Calm,Calm,-,N/A,,Unknown,0,2013-03-05 04:53:00